Flag for Australia Weather past 2 weeks in Kalgoorlie, Western Australia, Australia

Now
59 °F

Clear.


Feels Like: 58 °F
Forecast: 52 / 84 °F
Wind: 6 mph from Northeast

Location: Kalgoorlie Boulder Amo

Current Time: Aug 24, 2014 at 2:37:00 AM

Latest Report: Aug 24, 2014 at 2:00 AM


Visibility: N/A

Pressure: 30.18 "Hg

Humidity: 59%

Dew point: 45 °F

Location of KalgoorlieLocation

Historic Weather in Kalgoorlie — Graph

°F

Kalgoorlie temperature yesterday

Maximum temperature yesterday: 72 °F (at 2:30 PM)
Minimum temperature yesterday: 45 °F (at 1:00 AM)
Average temperature yesterday: 58 °F

Past Weeks' High & Low Weather Summary

 TemperatureHumidityPressure
High75 °F (Aug 17, 2:00 PM)100% (Aug 16, 6:00 AM)30.60 "Hg (Aug 16, 6:00 AM)
Low37 °F (Aug 17, 4:30 AM)8% (Aug 17, 1:00 PM)29.89 "Hg (Aug 21, 1:30 PM)
Average56 °F56%30.25 "Hg
* Reported Aug 9 1:00 AM — Aug 24 1:00 AM, Kalgoorlie, Weather by CustomWeather, © 2014

Note: Actual official high and low records may vary slightly from our data, if they occured in-between our weather recording intervals... More about our weather records

Advertising

Kalgoorlie weather history for previous 24 hours

 ConditionsComfort  
Time TempWeatherWind HumidityBarometerVisibility
1:00 AM
Aug 24
59 °FClear.7 mph55%30.18 "HgN/A
12:30 AM61 °FClear.6 mph52%30.21 "HgN/A
12:00 AM61 °FClear.7 mph52%30.18 "HgN/A
11:30 PM
Aug 23
61 °FClear.6 mph52%30.21 "HgN/A
11:00 PM61 °FClear.7 mph52%30.21 "HgN/A
10:30 PM59 °FClear.6 mph59%30.21 "HgN/A
10:00 PM59 °FClear.6 mph55%30.21 "HgN/A
9:30 PM55 °FClear.5 mph67%30.21 "HgN/A
9:00 PM57 °FClear.5 mph63%30.21 "HgN/A
8:30 PM59 °FClear.6 mph59%30.24 "HgN/A
8:00 PM59 °FClear.5 mph59%30.21 "HgN/A
7:30 PM61 °FClear.5 mph55%30.21 "HgN/A
7:00 PM61 °FClear.5 mph55%30.21 "HgN/A
6:30 PM64 °FClear.3 mph46%30.21 "HgN/A
6:00 PM64 °FClear.3 mph49%30.18 "HgN/A
5:30 PM68 °FClear.5 mph40%30.18 "HgN/A
5:00 PM70 °FClear.6 mph35%30.18 "HgN/A
4:30 PM72 °FScattered clouds.5 mph36%30.18 "HgN/A
4:00 PM72 °FScattered clouds.8 mph36%30.18 "HgN/A
3:30 PM72 °FSunny.8 mph33%30.18 "HgN/A
3:00 PM72 °FSunny.13 mph33%30.18 "HgN/A
2:30 PM72 °FSunny.7 mph36%30.21 "HgN/A
2:00 PM70 °FSunny.6 mph35%30.21 "HgN/A
1:30 PM70 °FSunny.6 mph38%30.21 "HgN/A
1:00 PM68 °FSunny.7 mph40%30.24 "HgN/A
12:30 PM66 °FSunny.7 mph43%30.24 "HgN/A
12:00 PM68 °FSunny.8 mph40%30.27 "HgN/A
11:30 AM66 °FSunny.8 mph43%30.27 "HgN/A
11:00 AM63 °FSunny.9 mph49%30.27 "HgN/A
10:30 AM63 °FSunny.13 mph45%30.30 "HgN/A
10:00 AM61 °FSunny.12 mph48%30.30 "HgN/A
9:30 AM57 °FSunny.12 mph55%30.30 "HgN/A
9:00 AM55 °FSunny.13 mph59%30.33 "HgN/A
8:30 AM54 °FSunny.13 mph63%30.33 "HgN/A
8:00 AM52 °FSunny.12 mph67%30.30 "HgN/A
7:00 AM48 °FSunny.10 mph76%30.30 "HgN/A
6:30 AM48 °FSunny.10 mph71%30.27 "HgN/A
6:00 AM48 °FSunny.10 mph71%30.27 "HgN/A
5:30 AM48 °FSunny.10 mph71%30.27 "HgN/A
5:00 AM48 °FClear.12 mph71%30.27 "HgN/A
4:30 AM48 °FClear.10 mph71%30.24 "HgN/A
4:00 AM48 °FClear.10 mph66%30.24 "HgN/A
3:30 AM46 °FClear.8 mph71%30.24 "HgN/A
3:00 AM45 °FClear.8 mph76%30.24 "HgN/A
2:30 AM45 °FClear.10 mph76%30.24 "HgN/A
2:00 AM45 °FClear.10 mph76%30.24 "HgN/A
Weather by CustomWeather, © 2014

See weather overviewHow to use our weather pages